Location: Ostrava
(49.8330°N, 18.2830°E)
Time: 06:48:55
(UTC+01:00)

Cosmos 2219 Rocket - Visible Passes

Search period start: 20 December 2014 00:00
Search period end: 30 December 2014 00:00
Orbit: 827 x 848 km, 71.0° (Epoch: 18 December)

Date Brightness Start Highest point End Pass type
(mag) Time Alt. Az. Time Alt. Az. Time Alt. Az.
20 Dec 4.5 05:46:14 10° SSE 05:50:53 27° ESE 05:55:34 10° NE visible
20 Dec 3.2 16:17:58 10° NW 16:23:27 53° WSW 16:28:52 10° S visible
21 Dec 4.5 05:30:07 10° SSE 05:34:40 25° ESE 05:39:13 10° NE visible
22 Dec 4.6 05:14:02 10° SSE 05:18:26 24° ESE 05:22:51 10° NE visible
22 Dec 2.2 06:56:16 10° SW 07:01:54 67° WNW 07:07:35 10° NNE visible
23 Dec 4.6 04:57:58 10° SSE 05:02:12 22° ESE 05:06:28 10° NE visible
23 Dec 2.2 06:39:57 10° SW 06:45:37 71° WNW 06:51:19 10° NNE visible
23 Dec 5.6 17:16:21 10° W 17:17:29 11° W 17:18:37 10° WSW visible
24 Dec 4.7 04:41:54 10° SSE 04:45:59 21° E 04:50:04 10° NE visible
24 Dec 2.2 06:23:39 10° SW 06:29:20 75° WNW 06:35:02 10° NNE visible
24 Dec 5.4 16:59:28 10° WNW 17:01:17 12° W 17:03:05 10° WSW visible
25 Dec 4.7 04:25:52 10° SE 04:29:45 19° E 04:33:40 10° NE visible
25 Dec 2.1 06:07:22 10° SSW 06:13:03 80° WNW 06:18:46 10° NNE visible
25 Dec 5.3 16:42:47 10° WNW 16:45:04 13° W 16:47:21 10° WSW visible
26 Dec 4.8 04:09:50 10° SE 04:13:32 18° E 04:17:14 10° ENE visible
26 Dec 2.1 05:51:05 10° SSW 05:56:46 84° WNW 06:02:29 10° NNE visible
26 Dec 5.2 16:26:12 10° WNW 16:28:51 14° W 16:31:30 10° SW visible
27 Dec 4.8 03:53:51 10° SE 03:57:19 17° E 04:00:48 10° ENE visible
27 Dec 2.1 05:34:48 10° SSW 05:40:29 89° WNW 05:46:12 10° NNE visible
28 Dec 4.8 03:37:52 10° SE 03:41:06 16° E 03:44:19 10° ENE visible
28 Dec 2.2 05:18:31 10° SSW 05:24:12 86° ESE 05:29:55 10° NNE visible
28 Dec 3.3 07:04:25 10° W 07:08:55 24° NW 07:13:26 10° NNE visible
29 Dec 4.9 03:21:56 10° SE 03:24:53 15° E 03:27:49 10° ENE visible
29 Dec 2.2 05:02:53 13° SSW 05:07:56 81° ESE 05:13:38 10° NNE visible
29 Dec 3.2 06:47:59 10° W 06:52:34 25° NW 06:57:11 10° NNE visible
